EST,Max TemperatureF,Mean TemperatureF,Min TemperatureF,Max Dew PointF,MeanDew PointF,Min DewpointF,Max Humidity, Mean Humidity, Min Humidity, Max Sea Level PressureIn, Mean Sea Level PressureIn, Min Sea Level PressureIn, Max VisibilityMiles, Mean VisibilityMiles, Min VisibilityMiles, Max Wind SpeedMPH, Mean Wind SpeedMPH, Max Gust SpeedMPH,PrecipitationIn, CloudCover, Events, WindDirDegrees
2013-2-1,32,26,21,15,7,1,52,41,33,30.16,29.89,29.69,10,10,10,15,10,25,0.00,2,,290
2013-2-2,30,24,19,21,13,5,81,58,43,30.30,30.16,30.07,10,9,2,15,6,24,0.00,4,Snow,251
2013-2-3,34,28,21,19,16,14,85,65,46,30.05,29.87,29.75,10,10,8,9,4,,0.00,2,,334
2013-2-4,30,26,21,14,8,3,74,47,32,29.98,29.87,29.77,10,10,10,14,6,23,0.00,2,,294
2013-2-5,27,25,24,23,18,5,93,76,41,30.02,29.96,29.92,10,8,2,8,4,,0.00,8,Snow,30
2013-2-6,37,32,26,27,20,0,93,69,29,30.32,30.04,29.92,10,8,2,12,4,21,0.00,5,Snow,330
2013-2-7,30,24,19,16,7,0,61,45,32,30.52,30.46,30.34,10,10,10,8,4,,0.00,2,,51
2013-2-8,34,30,23,32,29,17,100,93,71,30.41,29.90,29.43,10,2,0,29,14,50,0.54,7,Fog-Snow,47
2013-2-9,27,22,16,20,16,2,96,78,47,30.24,29.79,29.48,10,4,0,26,17,39,0.09,5,Fog-Snow,334
2013-2-10,33,22,12,21,9,-1,96,60,35,30.43,30.37,30.25,10,10,10,10,6,,0.00,0,,301
2013-2-11,46,30,14,46,36,12,100,97,85,30.36,29.94,29.65,9,3,0,17,5,24,0.32,7,Fog-Rain,193
2013-2-12,44,40,33,41,31,23,100,73,45,29.91,29.77,29.66,10,10,2,12,4,21,0.00,3,,273
2013-2-13,39,34,28,27,23,20,82,65,50,29.92,29.82,29.67,10,10,10,12,3,,0.00,2,,244
2013-2-14,41,34,27,32,28,20,100,81,43,30.02,29.84,29.70,10,7,0,10,3,,0.08,3,Fog-Snow,319
2013-2-15,46,34,23,39,29,21,100,93,71,30.05,30.00,29.94,10,4,0,15,1,21,0.00,3,Fog,224
2013-2-16,37,32,28,34,31,26,100,93,70,29.95,29.86,29.67,10,4,0,13,4,18,0.00,7,Fog-Snow,356
2013-2-17,28,24,18,27,14,-1,93,70,33,29.75,29.56,29.46,10,4,1,25,15,40,0.00,5,Snow,329
2013-2-18,32,24,16,9,1,-2,50,38,23,30.22,30.06,29.80,10,10,10,17,11,34,0.00,0,,298
2013-2-19,46,32,18,46,36,14,100,90,54,30.22,29.84,29.62,10,7,1,15,5,,0.20,5,Rain,204
2013-2-20,39,32,25,39,19,6,100,59,37,29.87,29.72,29.61,10,10,7,14,8,26,0.00,4,,279
2013-2-21,33,28,24,14,12,10,60,52,42,30.22,29.95,29.85,10,10,10,16,9,30,0.00,1,,301
2013-2-22,37,30,24,25,21,15,75,64,53,30.38,30.33,30.23,10,10,10,16,8,22,0.00,2,,34
2013-2-23,39,36,32,36,33,24,100,88,70,30.32,30.09,29.81,10,8,2,16,7,22,0.04,8,Rain,76
2013-2-24,39,36,33,39,35,30,100,95,86,29.90,29.75,29.64,10,6,2,18,10,25,0.13,8,Rain-Snow,352
2013-2-25,41,36,30,32,30,27,96,79,60,30.25,30.09,29.91,10,10,7,9,4,,0.00,6,,341
2013-2-26,39,36,32,35,30,25,96,79,55,30.33,30.25,30.08,10,10,8,17,5,25,0.00,6,Rain,93
2013-2-27,43,40,37,43,41,36,100,98,93,30.02,29.71,29.57,9,3,0,29,16,46,0.71,8,Fog-Rain,80
2013-2-28,43,40,37,40,37,36,100,93,76,29.64,29.59,29.53,10,9,5,9,3,,0.00,7,,298